Flag for Congo Dem.Rep. Weather past 2 weeks in Bukavu, Congo Dem.Rep.

Now
72 °F

Passing clouds.


Feels Like: 76 °F
Forecast: 49 / 75 °F
Wind: No wind

Location: Kigali Airport

Current Time: Jul 7, 2015 at 9:56:25 PM

Latest Report: Jul 7, 2015 at 9:30 PM


Visibility: N/A

Pressure: 30.21 "Hg (24.78 "Hg at 1710m altitude)

Humidity: 57%

Dew point: 55 °F

Location of BukavuLocation

Historic Weather in Bukavu — Graph

°F

Bukavu temperature yesterday

Maximum temperature yesterday: 82 °F (at 3:30 PM)
Minimum temperature yesterday: 59 °F (at 4:00 AM)
Average temperature yesterday: 71 °F

Past Weeks' High & Low Weather Summary

 TemperatureHumidityPressure
High84 °F (Jul 5, 4:00 PM)100% (Jun 24, 7:00 AM)30.30 "Hg (Jun 24, 7:00 AM)
Low57 °F (Jul 5, 6:30 AM)35% (Jul 6, 4:00 PM)30.09 "Hg (Jun 30, 3:00 PM)
Average71 °F70%30.20 "Hg
* Reported Jun 22 9:00 PM — Jul 7 9:00 PM, Bukavu, Weather by CustomWeather, © 2015

Note: Actual official high and low records may vary slightly from our data, if they occured in-between our weather recording intervals... More about our weather records

Advertising

Bukavu weather history for previous 24 hours

 ConditionsComfort  
Time TempWeatherWind HumidityBarometerVisibility
9:00 PM
Tue, Jul 7
72 °FPassing clouds.No wind57%30.21 "HgN/A
8:30 PM73 °FPassing clouds.No wind53%30.18 "HgN/A
8:00 PM73 °FPassing clouds.3 mph53%30.18 "HgN/A
7:30 PM75 °FPassing clouds.3 mph50%30.15 "HgN/A
7:00 PM75 °FPassing clouds.6 mph50%30.15 "HgN/A
6:30 PM75 °FPassing clouds.5 mph54%30.15 "HgN/A
6:00 PM77 °FScattered clouds.5 mph51%30.15 "HgN/A
5:30 PM77 °FScattered clouds.5 mph51%30.15 "HgN/A
5:00 PM79 °FScattered clouds.7 mph45%30.15 "HgN/A
4:30 PM81 °FPartly sunny.9 mph42%30.12 "HgN/A
4:00 PM81 °FPartly sunny.9 mph39%30.12 "HgN/A
3:30 PM81 °FPartly sunny.9 mph39%30.12 "HgN/A
3:00 PM81 °FPartly sunny.9 mph42%30.12 "HgN/A
2:30 PM81 °FPartly sunny.9 mph42%30.15 "HgN/A
2:00 PM81 °FPartly sunny.9 mph39%30.15 "HgN/A
1:30 PM79 °FPartly sunny.10 mph45%30.18 "HgN/A
1:00 PM79 °FPartly sunny.10 mph45%30.18 "HgN/A
12:30 PM79 °FPartly sunny.10 mph45%30.21 "HgN/A
12:00 PM77 °FPartly sunny.14 mph47%30.21 "HgN/A
11:30 AM77 °FScattered clouds.8 mph47%30.21 "HgN/A
11:00 AM77 °FScattered clouds.9 mph51%30.24 "HgN/A
10:30 AM75 °FScattered clouds.6 mph54%30.24 "HgN/A
10:00 AM73 °FScattered clouds.6 mph57%30.27 "HgN/A
9:30 AM73 °FPassing clouds.7 mph53%30.27 "Hg5 mi
9:00 AM73 °FPassing clouds.3 mph53%30.27 "Hg5 mi
8:30 AM72 °FPassing clouds.No wind57%30.27 "Hg5 mi
8:00 AM68 °FPassing clouds.3 mph60%30.24 "Hg5 mi
7:30 AM63 °FPassing clouds.3 mph77%30.24 "HgN/A
7:00 AM59 °FPassing clouds.5 mph82%30.21 "HgN/A
6:30 AM57 °FPassing clouds.3 mph88%30.21 "HgN/A
6:00 AM57 °FPassing clouds.3 mph88%30.21 "HgN/A
5:30 AM59 °FPassing clouds.3 mph82%30.21 "HgN/A
5:00 AM57 °FPassing clouds.3 mph88%30.21 "HgN/A
4:30 AM59 °FPassing clouds.No wind82%30.18 "HgN/A
4:00 AM59 °FPassing clouds.3 mph82%30.18 "HgN/A
3:30 AM61 °FPassing clouds.No wind77%30.18 "HgN/A
3:00 AM61 °FPassing clouds.5 mph77%30.18 "HgN/A
2:30 AM61 °FPassing clouds.3 mph77%30.18 "HgN/A
2:00 AM61 °FPassing clouds.5 mph77%30.15 "HgN/A
1:30 AM63 °FPassing clouds.3 mph73%30.18 "HgN/A
1:00 AM63 °FPassing clouds.6 mph73%30.18 "HgN/A
12:30 AM64 °FPassing clouds.3 mph68%30.18 "HgN/A
12:00 AM66 °FPassing clouds.No wind60%30.21 "HgN/A
11:30 PM
Mon, Jul 6
66 °FPassing clouds.No wind60%30.21 "HgN/A
11:00 PM66 °FPassing clouds.No wind60%30.21 "HgN/A
10:30 PM66 °FPassing clouds.3 mph64%30.21 "HgN/A
10:00 PM66 °FPassing clouds.No wind56%30.21 "HgN/A
9:30 PM68 °FPassing clouds.3 mph56%30.21 "HgN/A
9:00 PM68 °FPassing clouds.3 mph53%30.21 "HgN/A
Weather by CustomWeather, © 2015

See weather overviewHow to use our weather pages